Вернуться в каталог

O3B MPOWER F8

АктивенСвязьMEO
NORAD 62363·PAYLOAD·🇱🇺 Luxembourg

Запущен Dec 17, 2024 с Cape Canaveral Space Force Station

Loading…

Ближайшие Пролёты (ближайшие 24 часа)

TLE

СвежийSource: CelesTrak SupGP

Эпоха: Sep 14, 2026, 18:00 UTC

1 62363C 24244B   26257.75000000  .00000000  00000+0  00000+0 0  2575
2 62363   0.0322  36.9523 0005232 126.6690 118.0397  5.00114833    14

Отслеживайте O3B MPOWER F8 в реальном времени с AllMySat

Download on the App Store